When you browse on this site, cookies collect data to enhance your experience and personalize the content and advertising you see.
Visit our Privacy Policy to learn more. By continuing to use the site, you agree to this use of cookies and data.
  • In Slovakia
  • List of Countries
  • For 7 days
  • Water Temperature
  • Weather Map
  • Weather Widgets
  • user-avatar
    Login

    Hourly Weather Kitzbuhel

    Today, 27 January, Monday

    Time Temperature Precipitation Wind Pressure Humidity
    00:00 0°C° 0 mm 1 mps 676 mmHg 86%
    01:00 0°C° 0 mm 1 mps 676 mmHg 86%
    02:00 0°C° 0 mm 1 mps 676 mmHg 86%
    03:00 0°C° 0 mm 1 mps 675 mmHg 85%
    04:00 0°C° 0 mm 1 mps 675 mmHg 85%
    05:00 0°C° 0 mm 1 mps 675 mmHg 85%
    06:00 -1°C° 0 mm 1 mps 675 mmHg 86%
    07:00 -1°C° 0 mm 1 mps 675 mmHg 86%
    08:00 +1°C° 0 mm 1 mps 675 mmHg 85%
    09:00 +2°C° 0 mm 1 mps 676 mmHg 84%
    10:00 +3°C° 0 mm 1 mps 676 mmHg 83%
    11:00 +4°C° 0 mm 1 mps 675 mmHg 84%
    12:00 +5°C° 0 mm 1 mps 675 mmHg 84%
    13:00 +5°C° 0 mm 1 mps 674 mmHg 85%
    14:00 +5°C° 0 mm 1 mps 674 mmHg 85%
    15:00 +5°C° 0 mm 1 mps 673 mmHg 85%
    16:00 +4°C° 0 mm 1 mps 673 mmHg 85%
    17:00 +2°C° 0 mm 2 mps 673 mmHg 83%
    18:00 +2°C° 0 mm 2 mps 672 mmHg 81%
    19:00 0°C° 0 mm 3 mps 672 mmHg 80%
    20:00 0°C° 0 mm 3 mps 672 mmHg 80%
    21:00 +1°C° 0 mm 2 mps 671 mmHg 80%
    22:00 +1°C° 0 mm 2 mps 671 mmHg 80%
    23:00 +1°C° 0 mm 2 mps 670 mmHg 80%

    Tomorrow, 28 January, Tuesday

    Time Temperature Precipitation Wind Pressure Humidity
    00:00 -1°C° 0 mm 2 mps 670 mmHg 80%
    01:00 -1°C° 0 mm 2 mps 669 mmHg 81%
    02:00 -1°C° 0 mm 2 mps 669 mmHg 80%
    03:00 -1°C° 0 mm 3 mps 668 mmHg 80%
    04:00 -1°C° 0 mm 3 mps 667 mmHg 80%
    05:00 -1°C° 0 mm 2 mps 667 mmHg 80%
    06:00 -1°C° 0 mm 2 mps 667 mmHg 80%
    07:00 -2°C° 0 mm 2 mps 666 mmHg 81%
    08:00 -1°C° 0 mm 2 mps 666 mmHg 81%
    09:00 +1°C° 0 mm 2 mps 666 mmHg 81%
    10:00 +2°C° 0 mm 2 mps 666 mmHg 82%
    11:00 +2°C° 0.2 mm 2 mps 666 mmHg 85%
    12:00 +3°C° 0.2 mm 1 mps 665 mmHg 87%
    13:00 +4°C° 0.2 mm 1 mps 665 mmHg 90%
    14:00 +2°C° 1.7 mm 2 mps 665 mmHg 89%
    15:00 0°C° 1.7 mm 3 mps 665 mmHg 88%
    16:00 -3°C° 1.7 mm 4 mps 665 mmHg 87%
    17:00 -4°C° 0.2 mm 3 mps 666 mmHg 87%
    18:00 -4°C° 0.2 mm 2 mps 666 mmHg 88%
    19:00 -5°C° 0.2 mm 2 mps 667 mmHg 88%
    20:00 -5°C° 0 mm 2 mps 667 mmHg 87%
    21:00 -5°C° 0 mm 2 mps 667 mmHg 86%
    22:00 -6°C° 0 mm 2 mps 667 mmHg 85%
    23:00 -6°C° 0 mm 2 mps 667 mmHg 84%

    Day after tomorrow, 29 January, Wednesday

    Time Temperature Precipitation Wind Pressure Humidity
    00:00 -6°C° 0 mm 2 mps 668 mmHg 83%
    01:00 -5°C° 0 mm 2 mps 668 mmHg 82%
    02:00 -5°C° 0.1 mm 2 mps 668 mmHg 82%
    03:00 -5°C° 0.1 mm 2 mps 667 mmHg 82%
    04:00 -6°C° 0.1 mm 3 mps 667 mmHg 82%
    05:00 -5°C° 0.4 mm 2 mps 668 mmHg 85%
    06:00 -5°C° 0.4 mm 2 mps 668 mmHg 89%
    07:00 -3°C° 0.4 mm 1 mps 669 mmHg 92%
    08:00 -4°C° 0.8 mm 2 mps 669 mmHg 91%
    09:00 -3°C° 0.8 mm 2 mps 670 mmHg 89%
    10:00 -4°C° 0.8 mm 3 mps 671 mmHg 88%
    11:00 -2°C° 0.3 mm 3 mps 671 mmHg 85%
    12:00 -2°C° 0.3 mm 3 mps 671 mmHg 82%
    13:00 -2°C° 0.3 mm 3 mps 671 mmHg 79%
    14:00 -2°C° 0.3 mm 2 mps 671 mmHg 82%
    15:00 -2°C° 0.3 mm 2 mps 671 mmHg 85%
    16:00 -1°C° 0.3 mm 1 mps 672 mmHg 88%
    17:00 -1°C° 0.8 mm 1 mps 672 mmHg 91%
    18:00 -1°C° 0.8 mm 1 mps 673 mmHg 93%
    19:00 -2°C° 0.8 mm 1 mps 673 mmHg 96%
    20:00 -2°C° 0.9 mm 1 mps 674 mmHg 96%
    21:00 -2°C° 0.9 mm 1 mps 674 mmHg 95%
    22:00 -2°C° 0.9 mm 1 mps 675 mmHg 94%
    23:00 -2°C° 1.6 mm 1 mps 675 mmHg 95%

    30 January, Thursday

    Time Temperature Precipitation Wind Pressure Humidity
    00:00 -2°C° 1.6 mm 1 mps 675 mmHg 96%
    01:00 -2°C° 1.6 mm 1 mps 676 mmHg 97%
    02:00 -2°C° 0.6 mm 1 mps 676 mmHg 97%
    03:00 -2°C° 0.6 mm 1 mps 677 mmHg 97%
    04:00 -2°C° 0.6 mm 1 mps 677 mmHg 97%
    05:00 -3°C° 0.2 mm 1 mps 677 mmHg 95%
    06:00 -3°C° 0.2 mm 1 mps 677 mmHg 93%
    07:00 -4°C° 0.2 mm 1 mps 678 mmHg 91%
    08:00 -3°C° 0 mm 1 mps 678 mmHg 88%
    09:00 -2°C° 0 mm 1 mps 678 mmHg 84%
    10:00 -1°C° 0 mm 1 mps 678 mmHg 80%
    11:00 +1°C° 0 mm 1 mps 678 mmHg 80%
    12:00 +2°C° 0 mm 1 mps 678 mmHg 79%
    13:00 +2°C° 0 mm 0 mps 677 mmHg 79%
    14:00 +3°C° 0 mm 1 mps 677 mmHg 80%
    15:00 +3°C° 0 mm 1 mps 677 mmHg 80%
    16:00 +3°C° 0 mm 1 mps 676 mmHg 81%
    17:00 +2°C° 0 mm 1 mps 676 mmHg 76%
    18:00 -1°C° 0 mm 2 mps 676 mmHg 71%
    19:00 -2°C° 0 mm 2 mps 676 mmHg 66%
    20:00 -2°C° 0 mm 2 mps 676 mmHg 64%
    21:00 -2°C° 0 mm 2 mps 676 mmHg 63%
    22:00 -2°C° 0 mm 2 mps 676 mmHg 61%
    23:00 -2°C° 0 mm 2 mps 676 mmHg 60%

    31 January, Friday

    Time Temperature Precipitation Wind Pressure Humidity
    00:00 -2°C° 0 mm 2 mps 676 mmHg 59%
    01:00 -2°C° 0 mm 2 mps 676 mmHg 58%
    02:00 -1°C° 0 mm 2 mps 676 mmHg 58%
    03:00 -1°C° 0 mm 2 mps 676 mmHg 59%
    04:00 -1°C° 0 mm 2 mps 675 mmHg 59%
    05:00 +1°C° 0.2 mm 2 mps 676 mmHg 65%
    06:00 +2°C° 0.2 mm 2 mps 676 mmHg 71%
    07:00 +2°C° 0.2 mm 2 mps 676 mmHg 77%
    08:00 +3°C° 0.2 mm 2 mps 676 mmHg 83%
    09:00 +3°C° 0.2 mm 2 mps 676 mmHg 89%
    10:00 +5°C° 0.2 mm 1 mps 676 mmHg 94%
    11:00 +5°C° 0.1 mm 1 mps 676 mmHg 96%
    12:00 +5°C° 0.1 mm 1 mps 676 mmHg 97%
    13:00 +6°C° 0.1 mm 1 mps 676 mmHg 98%
    14:00 +6°C° 0 mm 1 mps 676 mmHg 98%
    15:00 +6°C° 0 mm 1 mps 676 mmHg 98%
    16:00 +6°C° 0 mm 1 mps 676 mmHg 99%
    17:00 +6°C° 0 mm 1 mps 676 mmHg 98%
    18:00 +5°C° 0 mm 1 mps 676 mmHg 97%
    19:00 +5°C° 0 mm 1 mps 677 mmHg 96%
    20:00 +5°C° 0 mm 1 mps 677 mmHg 95%
    21:00 +5°C° 0 mm 1 mps 677 mmHg 94%
    22:00 +5°C° 0 mm 1 mps 677 mmHg 93%
    23:00 +5°C° 0 mm 1 mps 677 mmHg 93%

    1 February, Saturday

    Time Temperature Precipitation Wind Pressure Humidity
    00:00 +5°C° 0 mm 1 mps 677 mmHg 93%
    01:00 +5°C° 0 mm 1 mps 677 mmHg 92%
    02:00 +4°C° 0 mm 1 mps 677 mmHg 92%
    03:00 +4°C° 0 mm 1 mps 677 mmHg 91%
    04:00 +4°C° 0 mm 1 mps 676 mmHg 91%
    05:00 +4°C° 0 mm 1 mps 676 mmHg 90%
    06:00 +4°C° 0 mm 1 mps 676 mmHg 89%
    07:00 +4°C° 0 mm 1 mps 676 mmHg 88%
    08:00 +5°C° 0 mm 1 mps 677 mmHg 90%
    09:00 +5°C° 0 mm 1 mps 677 mmHg 92%
    10:00 +6°C° 0 mm 1 mps 677 mmHg 93%
    11:00 +6°C° 0 mm 1 mps 677 mmHg 95%
    12:00 +7°C° 0 mm 1 mps 676 mmHg 96%
    13:00 +8°C° 0 mm 1 mps 676 mmHg 97%
    14:00 +7°C° 0 mm 1 mps 676 mmHg 96%
    15:00 +7°C° 0 mm 1 mps 676 mmHg 96%
    16:00 +6°C° 0 mm 1 mps 675 mmHg 95%
    17:00 +6°C° 0 mm 1 mps 676 mmHg 93%
    18:00 +6°C° 0 mm 1 mps 676 mmHg 91%
    19:00 +5°C° 0 mm 1 mps 676 mmHg 89%
    20:00 +5°C° 0 mm 1 mps 676 mmHg 88%
    21:00 +5°C° 0 mm 1 mps 676 mmHg 88%
    22:00 +5°C° 0 mm 1 mps 676 mmHg 87%
    23:00 +5°C° 0.1 mm 1 mps 676 mmHg 88%
    Show more